FW7011 Weather Reports


time (UTC)temp
F
wind
direction
speed
knots
gust
knots
rain 1hr
in
rain 24hr
in
rain mn
in
humidity
%
barometer
mb
20260906102125 0 75 2.6 2.6 0.00 0.00 0.00 1015.2
20260906101620 0 87 1.7 2.6 0.00 0.00 0.00 1015.1
20260906101115 0 96 0.9 4.3 0.00 0.00 0.00 1014.9
20260906100610 0 9 0.0 2.6 0.00 0.00 0.00 1015.1
20260906100111 0 117 0.0 1.7 0.00 0.00 0.00 1015.2
20260906095610 0 265 0.9 2.6 0.00 0.00 0.00 1014.9
20260906095106 0 196 1.7 2.6 0.00 0.00 0.00 1014.7
20260906094605 0 112 2.6 4.3 0.00 0.00 0.00 1014.4
20260906094101 0 111 2.6 3.5 0.00 0.00 0.00 1014.4
20260906093556 0 125 0.9 2.6 0.00 0.00 0.00 1014.3
20260906093051 0 107 2.6 4.3 0.00 0.00 0.00 1014.3
20260906092546 0 107 3.5 4.3 0.00 0.00 0.00 1014.2
20260906092041 0 118 1.7 3.5 0.00 0.00 0.00 1014.3
20260906091537 0 95 0.9 1.7 0.00 0.00 0.00 1014.3
20260906091033 0 224 0.9 1.7 0.00 0.00 0.00 1014.4
20260906090528 0 92 0.9 2.6 0.00 0.00 0.00 1014.1
20260906090023 0 111 2.6 3.5 0.00 0.00 0.00 1014.3
20260906085521 0 112 2.6 4.3 0.00 0.00 0.00 1014.2
20260906085021 0 100 2.6 3.5 0.00 0.00 0.00 1014.3
20260906084516 0 54 1.7 1.7 0.00 0.00 0.00 1014.5
20260906084015 0 161 0.9 0.9 0.00 0.00 0.00 1014.4
20260906083511 0 240 1.7 1.7 0.00 0.00 0.00 1014.5
20260906083010 0 118 1.7 2.6 0.00 0.00 0.00 1014.2
20260906082505 0 114 1.7 1.7 0.00 0.00 0.00 1014.2
20260906082001 0 128 1.7 1.7 0.00 0.00 0.00 1014.2
20260906081456 0 113 2.6 3.5 0.00 0.00 0.00 1014.3
20260906080952 0 108 2.6 2.6 0.00 0.00 0.00 1014.1
20260906080448 0 49 0.0 2.6 0.00 0.00 0.00 1014.3
20260906075943 0 60 0.0 1.7 0.00 0.00 0.00 1014.6
20260906075438 0 73 0.9 1.7 0.00 0.00 0.00 1014.2
20260906074933 0 15 0.0 0.9 0.00 0.00 0.00 1014.4
20260906074433 0 66 0.9 2.6 0.00 0.00 0.00 1014.4
20260906073931 0 125 1.7 3.5 0.00 0.00 0.00 1014.2
20260906073426 0 71 1.7 1.7 0.00 0.00 0.00 1014.4
20260906072923 0 47 0.0 1.7 0.00 0.00 0.00 1014.5
20260906072418 0 145 0.9 2.6 0.00 0.00 0.00 1014.3
20260906071913 0 118 2.6 4.3 0.00 0.00 0.00 1014.2
20260906071404 0 118 2.6 4.3 0.00 0.00 0.00 1014.3
20260906070900 0 117 2.6 4.3 0.00 0.00 0.00 1014.3
20260906070355 0 114 3.5 3.5 0.00 0.00 0.00 1014.6
20260906065851 0 123 2.6 3.5 0.00 0.00 0.00 1014.6
20260906065345 0 126 3.5 4.3 0.00 0.00 0.00 1014.6
20260906064841 0 129 2.6 4.3 0.00 0.00 0.00 1014.7
20260906064337 0 123 0.0 1.7 0.00 0.00 0.00 1014.7
20260906063837 0 116 2.6 2.6 0.00 0.00 0.00 1014.7
20260906063332 0 132 1.7 3.5 0.00 0.00 0.00 1014.5
20260906062827 0 125 1.7 2.6 0.00 0.00 0.00 1014.7
20260906062326 0 117 0.9 2.6 0.00 0.00 0.00 1014.7
20260906061822 0 65 1.7 2.6 0.00 0.00 0.00 1014.7
20260906061318 0 49 1.7 2.6 0.00 0.00 0.00 1014.9
20260906060813 0 47 1.7 1.7 0.00 0.00 0.00 1014.9
20260906060311 0 61 0.9 2.6 0.00 0.00 0.00 1014.8
20260906055807 0 76 0.0 1.7 0.00 0.00 0.00 1015.0
20260906055306 0 231 0.0 1.7 0.00 0.00 0.00 1014.9
20260906054756 0 141 1.7 2.6 0.00 0.00 0.00 1014.8
20260906054252 0 50 0.9 2.6 0.00 0.00 0.00 1014.7
20260906053748 0 15 1.7 2.6 0.00 0.00 0.00 1014.7
20260906053244 0 105 0.9 2.6 0.00 0.00 0.00 1014.9
20260906052739 0 135 2.6 4.3 0.00 0.00 0.00 1014.8
20260906052235 0 116 3.5 3.5 0.00 0.00 0.00 1015.0
20260906051732 0 76 0.0 2.6 0.00 0.00 0.00 1015.1
20260906051231 0 102 0.0 2.6 0.00 0.00 0.00 1014.9
20260906050726 0 125 1.7 3.5 0.00 0.00 0.00 1015.1
20260906050222 0 126 2.6 3.5 0.00 0.00 0.00 1014.9
20260906045720 0 106 1.7 2.6 0.00 0.00 0.00 1014.9
20260906045216 0 111 1.7 3.5 0.00 0.00 0.00 1015.0
20260906044711 0 119 2.6 3.5 0.00 0.00 0.00 1014.8
20260906044206 0 121 2.6 3.5 0.00 0.00 0.00 1015.1
20260906043702 0 119 3.5 4.3 0.00 0.00 0.00 1014.9
20260906043157 0 119 3.5 5.2 0.00 0.00 0.00 1014.9
20260906042657 0 26 2.6 4.3 0.00 0.00 0.00 1014.8
20260906042151 0 21 1.7 4.3 0.00 0.00 0.00 1014.8
20260906041647 0 24 2.6 2.6 0.00 0.00 0.00 1015.1
20260906041142 0 82 1.7 2.6 0.00 0.00 0.00 1014.9
20260906040637 0 107 0.9 2.6 0.00 0.00 0.00 1015.0
20260906040133 0 106 1.7 3.5 0.00 0.00 0.00 1014.9
20260906035628 0 67 2.6 2.6 0.00 0.00 0.00 1015.0
20260906035124 0 106 2.6 3.5 0.00 0.00 0.00 1015.0
20260906034624 0 113 3.5 3.5 0.00 0.00 0.00 1015.0
20260906034118 0 101 1.7 2.6 0.00 0.00 0.00 1015.1
20260906033614 0 125 1.7 3.5 0.00 0.00 0.00 1015.1
20260906033108 0 126 2.6 3.5 0.00 0.00 0.00 1014.9
20260906032606 0 122 1.7 2.6 0.00 0.00 0.00 1015.2
20260906032100 0 118 2.6 2.6 0.00 0.00 0.00 1015.1
20260906031555 0 99 1.7 2.6 0.00 0.00 0.00 1015.1
20260906031051 0 108 0.0 2.6 0.00 0.00 0.00 1015.4
20260906030550 0 132 2.6 2.6 0.00 0.00 0.00 1015.4
20260906030049 0 109 1.7 2.6 0.00 0.00 0.00 1015.2
20260906025544 0 86 0.0 1.7 0.00 0.00 0.00 1015.4
20260906025042 0 88 0.9 1.7 0.00 0.00 0.00 1015.2
20260906024538 0 82 0.0 2.6 0.00 0.00 0.00 1015.1
20260906024037 0 104 1.7 2.6 0.00 0.00 0.00 1015.1
20260906023534 0 108 3.5 3.5 0.00 0.00 0.00 1015.1
20260906023028 0 122 2.6 3.5 0.00 0.00 0.00 1015.2
20260906022523 0 135 2.6 2.6 0.00 0.00 0.00 1015.3
20260906022013 0 130 2.6 3.5 0.00 0.00 0.00 1015.0
20260906021509 0 123 2.6 3.5 0.00 0.00 0.00 1015.0
20260906021003 0 111 1.7 2.6 0.00 0.00 0.00 1015.2
20260906020502 0 110 1.7 1.7 0.00 0.00 0.00 1015.0
20260906020001 0 84 0.0 1.7 0.00 0.00 0.00 1015.0
20260906015501 0 119 2.6 2.6 0.00 0.00 0.00 1015.1
20260906015001 0 120 1.7 2.6 0.00 0.00 0.00 1015.1
20260906014455 0 110 1.7 2.6 0.00 0.00 0.00 1014.8
20260906013951 0 117 3.5 3.5 0.00 0.00 0.00 1014.8
20260906013447 0 112 3.5 3.5 0.00 0.00 0.00 1014.8
20260906012942 0 116 2.6 3.5 0.00 0.00 0.00 1014.9
20260906012437 0 112 0.9 2.6 0.00 0.00 0.00 1014.5
20260906011936 0 97 0.9 3.5 0.00 0.00 0.00 1014.6
20260906011432 0 73 0.9 1.7 0.00 0.00 0.00 1014.5
20260906010927 0 95 1.7 1.7 0.00 0.00 0.00 1014.9
20260906010422 0 101 2.6 3.5 0.00 0.00 0.00 1014.6
20260906005919 0 111 2.6 3.5 0.00 0.00 0.00 1014.5
20260906005418 0 106 3.5 3.5 0.00 0.00 0.00 1014.5
20260906004916 0 99 3.5 3.5 0.00 0.00 0.00 1014.3
20260906004411 0 106 3.5 3.5 0.00 0.00 0.00 1014.2
20260906003907 0 107 3.5 3.5 0.00 0.00 0.00 1014.2
20260906003402 0 51 1.7 2.6 0.00 0.00 0.00 1014.3
20260906002857 0 99 2.6 2.6 0.00 0.00 0.00 1014.2
20260906002356 0 104 2.6 3.5 0.00 0.00 0.00 1014.2
20260906001852 0 96 2.6 3.5 0.00 0.00 0.00 1014.2
20260906001348 0 119 2.6 3.5 0.00 0.00 0.00 1013.8
20260906000842 0 116 3.5 3.5 0.00 0.00 0.00 1013.9
20260906000342 0 106 3.5 3.5 0.00 0.00 0.00 1013.9
20260905235837 0 102 2.6 2.6 0.00 0.00 0.00 1013.8
20260905235331 0 116 1.7 2.6 0.00 0.00 0.00 1013.7
20260905234827 0 115 2.6 2.6 0.00 0.00 0.00 1013.9
20260905234322 0 119 2.6 2.6 0.00 0.00 0.00 1013.4
20260905233817 0 132 1.7 3.5 0.00 0.00 0.00 1013.7
20260905233312 0 113 1.7 2.6 0.00 0.00 0.00 1013.7
20260905232811 0 107 0.9 2.6 0.00 0.00 0.00 1013.6
20260905232308 0 139 1.7 2.6 0.00 0.00 0.00 1013.3
20260905231803 0 189 0.0 0.9 0.00 0.00 0.00 1013.3
20260905231258 0 197 0.0 1.7 0.00 0.00 0.00 1013.7
20260905230754 0 296 0.9 1.7 0.00 0.00 0.00 1013.6
20260905230252 0 264 0.0 1.7 0.00 0.00 0.00 1013.7
20260905225751 0 245 0.9 1.7 0.00 0.00 0.00 1013.7
20260905225247 0 309 0.0 0.9 0.00 0.00 0.00 1013.7
20260905224746 0 305 1.7 2.6 0.00 0.00 0.00 1013.8
20260905224242 0 306 0.9 2.6 0.00 0.00 0.00 1014.0
20260905223737 0 336 2.6 2.6 0.00 0.00 0.00 1013.8
20260905223234 0 337 2.6 3.5 0.00 0.00 0.00 1013.6
20260905222730 0 320 1.7 3.5 0.00 0.00 0.00 1013.7
20260905222229 0 305 1.7 2.6 0.00 0.00 0.00 1013.7
20260905221725 0 299 2.6 5.2 0.00 0.00 0.00 1013.8
20260905221221 0 288 0.9 3.5 0.00 0.00 0.00 1013.8
20260905220717 0 313 2.6 5.2 0.00 0.00 0.00 1013.7
20260905220213 0 264 2.6 3.5 0.00 0.00 0.00 1013.8
20260905215712 0 277 2.6 3.5 0.00 0.00 0.00 1013.8
20260905215208 0 344 3.5 4.3 0.00 0.00 0.00 1013.8
20260905214704 0 255 4.3 8.7 0.00 0.00 0.00 1013.8
20260905214159 0 232 4.3 5.2 0.00 0.00 0.00 1013.9
20260905213654 0 281 3.5 4.3 0.00 0.00 0.00 1013.7
20260905213150 0 288 1.7 5.2 0.00 0.00 0.00 1013.8
20260905212645 0 17 0.0 3.5 0.00 0.00 0.00 1013.7
20260905212144 0 314 3.5 7.0 0.00 0.00 0.00 1013.6
20260905211639 0 258 2.6 5.2 0.00 0.00 0.00 1013.9
20260905211134 0 288 3.5 3.5 0.00 0.00 0.00 1013.8
20260905210631 0 328 2.6 7.8 0.00 0.00 0.00 1013.6
20260905210125 0 255 1.7 4.3 0.00 0.00 0.00 1013.4
20260905205624 0 288 2.6 5.2 0.00 0.00 0.00 1013.6
20260905205124 0 254 5.2 6.1 0.00 0.00 0.00 1013.7
20260905204624 0 251 3.5 5.2 0.00 0.00 0.00 1013.8
20260905204120 0 288 4.3 4.3 0.00 0.00 0.00 1014.0
20260905203619 0 248 3.5 4.3 0.00 0.00 0.00 1013.9
20260905203115 0 233 3.5 4.3 0.00 0.00 0.00 1014.1
20260905202610 0 287 2.6 3.5 0.00 0.00 0.00 1013.9
20260905202105 0 241 4.3 4.3 0.00 0.00 0.00 1013.9
20260905201601 0 220 4.3 7.8 0.00 0.00 0.00 1014.2
20260905201100 0 233 6.1 7.0 0.00 0.00 0.00 1013.9
20260905200556 0 253 1.7 5.2 0.00 0.00 0.00 1013.9
20260905200056 0 263 2.6 3.5 0.00 0.00 0.00 1013.8
20260905195550 0 251 4.3 4.3 0.00 0.00 0.00 1013.9
20260905195046 0 282 2.6 5.2 0.00 0.00 0.00 1013.8
20260905194545 0 231 5.2 5.2 0.00 0.00 0.00 1014.0
20260905194044 0 267 5.2 5.2 0.00 0.00 0.00 1013.7
20260905193539 0 267 2.6 4.3 0.00 0.00 0.00 1013.8
20260905193035 0 280 2.6 2.6 0.00 0.00 0.00 1013.4
20260905192530 0 179 0.9 1.7 0.00 0.00 0.00 1013.6
20260905192027 0 232 1.7 3.5 0.00 0.00 0.00 1013.7
20260905191524 0 246 1.7 3.5 0.00 0.00 0.00 1013.0
20260905191024 0 231 0.0 3.5 0.00 0.00 0.00 1012.8
20260905190522 0 225 2.6 4.3 0.00 0.00 0.00 1013.3
20260905190022 0 273 1.7 4.3 0.00 0.00 0.00 1013.2
20260905185516 0 1 2.6 2.6 0.00 0.00 0.00 1013.4
20260905185015 0 48 1.7 2.6 0.00 0.00 0.00 1013.9
20260905184510 0 279 3.5 8.7 0.00 0.00 0.00 1014.2
20260905184009 0 34 4.3 5.2 0.00 0.00 0.00 1014.3
20260905183508 0 330 3.5 8.7 0.00 0.00 0.00 1014.3
20260905183003 0 281 6.1 6.1 0.00 0.00 0.00 1012.7
20260905182503 0 19 0.0 5.2 0.00 0.00 0.00 1012.6
20260905181957 0 118 2.6 4.3 0.00 0.00 0.00 1013.0
20260905181453 0 181 0.0 4.3 0.00 0.00 0.00 1013.6
20260905180951 0 105 5.2 8.7 0.00 0.00 0.00 1013.9
20260905180446 0 119 5.2 5.2 0.00 0.00 0.00 1014.0
20260905175942 0 10 2.6 3.5 0.00 0.00 0.00 1014.5
20260905175441 0 151 0.0 2.6 0.00 0.00 0.00 1015.4
20260905174937 0 218 0.0 2.6 0.00 0.00 0.00 1015.2
20260905174432 0 259 2.6 3.5 0.00 0.00 0.00 1015.5
20260905173927 0 29 2.6 7.8 0.00 0.00 0.00 1015.5
20260905173424 0 327 2.6 9.6 0.00 0.00 0.00 1015.7
20260905172919 0 338 5.2 7.0 0.00 0.00 0.00 1015.9
20260905172417 0 294 3.5 6.1 0.00 0.00 0.00 1016.1
20260905171913 0 248 2.6 7.8 0.00 0.00 0.00 1016.8
20260905171409 0 351 2.6 12.2 0.00 0.00 0.00 1016.7
20260905170905 0 329 1.7 7.8 0.00 0.00 0.00 1016.5
20260905170401 0 299 6.1 13.9 0.00 0.00 0.00 1016.1
20260905165900 0 345 5.2 10.4 0.00 0.00 0.00 1016.1
20260905165356 0 299 5.2 7.0 0.00 0.00 0.00 1015.8
20260905164850 0 356 2.6 4.3 0.00 0.00 0.00 1015.8
20260905164345 0 266 4.3 8.7 0.00 0.00 0.00 1016.0
20260905163840 0 316 4.3 6.1 0.00 0.00 0.00 1016.1
20260905163337 0 240 7.8 9.6 0.00 0.00 0.00 1015.8
20260905162832 0 285 4.3 4.3 0.00 0.00 0.00 1015.7
20260905162326 0 329 4.3 5.2 0.00 0.00 0.00 1015.9
20260905161821 0 299 2.6 4.3 0.00 0.00 0.00 1015.7
20260905161320 0 14 2.6 4.3 0.00 0.00 0.00 1015.6
20260905160819 0 71 2.6 5.2 0.00 0.00 0.00 1015.8
20260905160313 0 15 2.6 6.1 0.00 0.00 0.00 1015.8
20260905155808 0 35 1.7 4.3 0.00 0.00 0.00 1015.8
20260905155307 0 1 4.3 4.3 0.00 0.00 0.00 1015.9
20260905154801 0 264 2.6 2.6 0.00 0.00 0.00 1015.9
20260905154257 0 246 0.0 3.5 0.00 0.00 0.00 1015.8
20260905153752 0 246 2.6 3.5 0.00 0.00 0.00 1016.0
20260905153248 0 44 1.7 2.6 0.00 0.00 0.00 1016.1
20260905152742 0 261 1.7 3.5 0.00 0.00 0.00 1016.1
20260905152237 0 281 2.6 2.6 0.00 0.00 0.00 1016.1
20260905151736 0 245 0.0 4.3 0.00 0.00 0.00 1015.8
20260905151232 0 193 0.0 1.7 0.00 0.00 0.00 1015.7
20260905150726 0 112 0.9 1.7 0.00 0.00 0.00 1015.9
20260905150225 0 246 3.5 4.3 0.00 0.00 0.00 1015.7
20260905145723 0 229 0.0 3.5 0.00 0.00 0.00 1015.8
20260905145218 0 248 1.7 3.5 0.00 0.00 0.00 1015.9
20260905144718 0 333 0.0 1.7 0.00 0.00 0.00 1015.8
20260905144218 0 259 3.5 4.3 0.00 0.00 0.00 1015.9
20260905143712 0 311 1.7 2.6 0.00 0.00 0.00 1015.9
20260905143212 0 238 2.6 3.5 0.00 0.00 0.00 1015.8
20260905142710 0 276 1.7 2.6 0.00 0.00 0.00 1015.9
20260905142205 0 321 0.0 2.6 0.00 0.00 0.00 1015.9
20260905141700 0 249 0.0 2.6 0.00 0.00 0.00 1015.8
20260905141156 0 285 0.0 3.5 0.00 0.00 0.00 1016.1
20260905140651 0 267 1.7 3.5 0.00 0.00 0.00 1015.5
20260905140151 0 249 2.6 2.6 0.00 0.00 0.00 1015.8
20260905135645 0 230 0.0 1.7 0.00 0.00 0.00 1015.6
20260905135136 0 174 0.0 1.7 0.00 0.00 0.00 1015.6
20260905134630 0 336 0.0 1.7 0.00 0.00 0.00 1015.5
20260905134129 0 200 0.9 1.7 0.00 0.00 0.00 1015.7
20260905133624 0 123 1.7 1.7 0.00 0.00 0.00 1015.8
20260905133119 0 123 1.7 2.6 0.00 0.00 0.00 1015.9
20260905132619 0 159 0.9 0.9 0.00 0.00 0.00 1015.8
20260905132113 0 282 1.7 1.7 0.00 0.00 0.00 1015.9
20260905131609 0 265 0.9 2.6 0.00 0.00 0.00 1015.9
20260905131104 0 232 1.7 2.6 0.00 0.00 0.00 1015.8
20260905130603 0 265 0.0 0.9 0.00 0.00 0.00 1015.6
20260905130058 0 296 0.0 0.9 0.00 0.00 0.00 1015.9
20260905125557 0 246 0.0 0.9 0.00 0.00 0.00 1015.9
20260905125053 0 223 0.0 1.7 0.00 0.00 0.00 1016.0
20260905124550 0 132 1.7 2.6 0.00 0.00 0.00 1016.0
20260905124045 0 118 1.7 1.7 0.00 0.00 0.00 1016.1
20260905123540 0 199 0.9 2.6 0.00 0.00 0.00 1015.9
20260905123037 0 117 1.7 2.6 0.00 0.00 0.00 1016.1
20260905122537 0 112 2.6 2.6 0.00 0.00 0.00 1016.1
20260905122032 0 59 0.0 1.7 0.00 0.00 0.00 1016.0
20260905121532 0 66 0.0 2.6 0.00 0.00 0.00 1016.2
20260905121026 0 354 0.0 0.9 0.00 0.00 0.00 1016.2
20260905120521 0 113 0.0 2.6 0.00 0.00 0.00 1016.1
20260905120016 0 93 1.7 3.5 0.00 0.00 0.00 1016.0
20260905115514 0 118 2.6 2.6 0.00 0.00 0.00 1016.2
20260905115009 0 119 2.6 3.5 0.00 0.00 0.00 1016.0
20260905114504 0 125 1.7 2.6 0.00 0.00 0.00 1016.0
20260905114003 0 111 1.7 1.7 0.00 0.00 0.00 1015.8
20260905113458 0 89 0.9 2.6 0.00 0.00 0.00 1015.8
20260905112953 0 132 1.7 2.6 0.00 0.00 0.00 1015.7
20260905112448 0 123 1.7 1.7 0.00 0.00 0.00 1015.8
20260905111944 0 132 0.9 1.7 0.00 0.00 0.00 1015.6
20260905111443 0 180 0.0 0.9 0.00 0.00 0.00 1015.7
20260905110938 0 353 0.0 1.7 0.00 0.00 0.00 1015.3
20260905110431 0 65 1.7 1.7 0.00 0.00 0.00 1015.5
20260905105932 0 114 0.0 1.7 0.00 0.00 0.00 1015.3
20260905105426 0 111 0.0 1.7 0.00 0.00 0.00 1015.5
20260905104925 0 128 2.6 5.2 0.00 0.00 0.00 1015.5
20260905104421 0 118 3.5 4.3 0.00 0.00 0.00 1015.4
20260905103916 0 96 4.3 5.2 0.00 0.00 0.00 1015.4
20260905103412 0 108 3.5 4.3 0.00 0.00 0.00 1015.4
20260905102907 0 114 2.6 2.6 0.00 0.00 0.00 1015.5